ATLAS 5 CENTAUR DEB, 44682

Orbit data source: Space-Track

ATLAS 5 CENTAUR DEB, 44682 is space debris in HEO originally from a launch on Wed, 17 Oct 2018 UTC launched from the Air Force Eastern Test Range (AFETR). Debris objects in space refer to the collection of defunct objects orbiting the Earth. Examples of debris include non-operational satellites, rocket bodies, and fragments generated from explosions, collisions, or faulty payload assembly.

Loading next visibility...
Identifier
44682, 2018-079AU
Orbit
HEO
Country
Flag of USUS
Related business
Flag of USUnited Launch Alliance/Lockheed Martin (US)
Manufacturer
ULA Decatur
Mission
Spacecraft
Bus & Motor
Unknown
Mass
Unknown
Launch date (UTC)
2018-10-17 (8 years ago)
Launch vehicle
Unknown
Launch site
Air Force Eastern Test Range (AFETR)
Object type
Payload
Rocket body
Debris
Shape & HBR
Unknown shape, 1.1 m
Radar Cross Section
RCS unknown

Expand to show TLE details & history
Last TLE update: 1 day ago

TLE from 1 day ago
0 ATLAS 5 CENTAUR DEB
1 44682U 18079AU  26129.45586661 -.00000088  00000-0  00000+0 0  9996
2 44682  13.3474  39.4432 4634755 305.2385  19.7582  1.81925804 46159
Epoch: 2026-05-09T10:56Z
TLE epoch observation values (Epoch: 2026-05-09T10:56:26.875Z)
Latitude
0.00001°
Longitude
8.00792°
Altitude
11,186.737 km
Speed
5.597 km/s
True Right ascension
02h 37m 34s
True Declination
0° 00' 00"
Sunlit
Object was in daylight at epoch
Visualization orbit readout
Latitude
Unknown
Longitude
Unknown
Altitude
Unknown
Speed
Unknown
Apparent Right ascension
Unknown
Apparent Declination
Unknown
Sunlit
N/A
Visualization observer readout
Local Sidereal Time
04:29:11
Azimuth
Unknown
Elevation
Unknown
Doppler factor
Unknown
Orbital elements
Apogee altitude
35,106.712 km
Perigee altitude
8,830.616 km
Semi-major axis
28,346.801 km
Eccentricity
0.46348
Inclination
13.3474°
RAAN
39.4432°
Arg. of periapsis
305.2385°
True anomaly
54.99164°
Mean anomaly
19.7582°
Eccentric anomaly
34.98328°
Mean motion
0.45477 °/min
Orbital period
791.62 mins
BSTAR
0
Loading maneuver chart data...
Computing Atmospheric mass density...

Documentation

Showing up to 5 results
|